When you browse on this site, cookies collect data to enhance your experience and personalize the content and advertising you see.
Visit our Privacy Policy to learn more. By continuing to use the site, you agree to this use of cookies and data.
  • In Hungary
  • List of Countries
  • For 7 days
  • Water Temperature
  • Satellite Maps
  • Weather Map
  • News
  • Weather Widgets
  • user-avatar
    Login

    Hourly Weather Potochyshche

    Today, 19 December, Wednesday

    Time Temperature Precipitation Wind Pressure Humidity
    00:00 -7°C° 0 mm 1 mps 744 mmHg 100%
    01:00 -9°C° 0 mm 2 mps 744 mmHg 100%
    02:00 -10°C° 0 mm 2 mps 744 mmHg 100%
    03:00 -12°C° 0 mm 2 mps 745 mmHg 100%
    04:00 -10°C° 0 mm 1 mps 744 mmHg 100%
    05:00 -11°C° 0 mm 1 mps 744 mmHg 100%
    06:00 -14°C° 0 mm 2 mps 744 mmHg 100%
    07:00 -14°C° 0 mm 2 mps 744 mmHg 100%
    08:00 -14°C° 0 mm 2 mps 744 mmHg 100%
    09:00 -12°C° 0 mm 1 mps 744 mmHg 100%
    10:00 -12°C° 0 mm 1 mps 745 mmHg 100%
    11:00 -11°C° 0 mm 1 mps 745 mmHg 100%
    12:00 -10°C° 0 mm 1 mps 745 mmHg 100%
    13:00 -9°C° 0 mm 1 mps 745 mmHg 99%
    14:00 -9°C° 0 mm 0 mps 745 mmHg 99%
    15:00 -9°C° 0 mm 1 mps 744 mmHg 100%
    16:00 -10°C° 0 mm 1 mps 744 mmHg 100%
    17:00 -12°C° 0 mm 2 mps 744 mmHg 100%
    18:00 -13°C° 0 mm 2 mps 744 mmHg 100%
    19:00 -14°C° 0 mm 2 mps 744 mmHg 100%
    20:00 -14°C° 0 mm 2 mps 744 mmHg 100%
    21:00 -15°C° 0 mm 2 mps 744 mmHg 100%
    22:00 -16°C° 0 mm 2 mps 743 mmHg 100%
    23:00 -16°C° 0 mm 2 mps 743 mmHg 100%

    Tomorrow, 20 December, Thursday

    Time Temperature Precipitation Wind Pressure Humidity
    00:00 -18°C° 0 mm 3 mps 743 mmHg 100%
    01:00 -18°C° 0 mm 3 mps 743 mmHg 100%
    02:00 -19°C° 0 mm 3 mps 743 mmHg 100%
    03:00 -19°C° 0 mm 3 mps 743 mmHg 100%
    04:00 -19°C° 0 mm 3 mps 742 mmHg 100%
    05:00 -19°C° 0 mm 2 mps 742 mmHg 100%
    06:00 -19°C° 0 mm 2 mps 742 mmHg 100%
    07:00 -19°C° 0 mm 2 mps 742 mmHg 100%
    08:00 -19°C° 0 mm 2 mps 742 mmHg 100%
    09:00 -19°C° 0 mm 2 mps 742 mmHg 100%
    10:00 -18°C° 0 mm 2 mps 742 mmHg 100%
    11:00 -17°C° 0 mm 3 mps 742 mmHg 100%
    12:00 -15°C° 0 mm 3 mps 742 mmHg 100%
    13:00 -14°C° 0 mm 3 mps 741 mmHg 99%
    14:00 -14°C° 0 mm 4 mps 741 mmHg 99%
    15:00 -12°C° 0 mm 3 mps 741 mmHg 99%
    16:00 -13°C° 0 mm 3 mps 741 mmHg 100%
    17:00 -12°C° 0 mm 2 mps 741 mmHg 100%
    18:00 -13°C° 0 mm 2 mps 740 mmHg 100%
    19:00 -13°C° 0 mm 2 mps 740 mmHg 100%
    20:00 -14°C° 0 mm 2 mps 740 mmHg 100%
    21:00 -14°C° 0 mm 2 mps 740 mmHg 100%
    22:00 -15°C° 0 mm 2 mps 740 mmHg 100%
    23:00 -15°C° 0 mm 2 mps 740 mmHg 100%

    Day after tomorrow, 21 December, Friday

    Time Temperature Precipitation Wind Pressure Humidity
    00:00 -13°C° 0 mm 1 mps 740 mmHg 100%
    01:00 -14°C° 0 mm 1 mps 739 mmHg 100%
    02:00 -14°C° 0 mm 1 mps 739 mmHg 100%
    03:00 -16°C° 0 mm 2 mps 739 mmHg 100%
    04:00 -13°C° 0 mm 1 mps 739 mmHg 100%
    05:00 -13°C° 0 mm 1 mps 739 mmHg 100%
    06:00 -11°C° 0 mm 1 mps 739 mmHg 100%
    07:00 -11°C° 0 mm 1 mps 739 mmHg 99%
    08:00 -10°C° 0 mm 0 mps 739 mmHg 97%
    09:00 -9°C° 0 mm 1 mps 739 mmHg 96%
    10:00 -9°C° 0 mm 1 mps 739 mmHg 97%
    11:00 -8°C° 0 mm 0 mps 739 mmHg 95%
    12:00 -6°C° 0 mm 0 mps 739 mmHg 98%
    13:00 -6°C° 0.3 mm 2 mps 739 mmHg 100%
    14:00 -3°C° 0 mm 1 mps 739 mmHg 99%
    15:00 -3°C° 0 mm 1 mps 738 mmHg 100%
    16:00 -4°C° 0 mm 0 mps 738 mmHg 100%
    17:00 -4°C° 0 mm 1 mps 739 mmHg 100%
    18:00 -4°C° 0 mm 1 mps 738 mmHg 100%
    19:00 -6°C° 0 mm 1 mps 738 mmHg 100%
    20:00 -7°C° 0 mm 2 mps 738 mmHg 100%
    21:00 -6°C° 0 mm 1 mps 738 mmHg 98%
    22:00 -3°C° 0.2 mm 1 mps 737 mmHg 100%
    23:00 -5°C° 0 mm 2 mps 737 mmHg 100%

    22 December, Saturday

    Time Temperature Precipitation Wind Pressure Humidity
    00:00 -5°C° 0 mm 3 mps 736 mmHg 100%
    01:00 -4°C° 0 mm 2 mps 735 mmHg 100%
    02:00 -3°C° 0 mm 2 mps 734 mmHg 99%
    03:00 -3°C° 0 mm 2 mps 734 mmHg 100%
    04:00 -2°C° 0.1 mm 3 mps 732 mmHg 100%
    05:00 -2°C° 0 mm 3 mps 732 mmHg 99%
    06:00 -2°C° 0 mm 3 mps 731 mmHg 100%
    07:00 -2°C° 0 mm 2 mps 732 mmHg 98%
    08:00 0°C° 0 mm 1 mps 731 mmHg 97%
    09:00 0°C° 0 mm 3 mps 732 mmHg 92%
    10:00 +1°C° 0 mm 2 mps 732 mmHg 91%
    11:00 0°C° 0 mm 4 mps 732 mmHg 92%
    12:00 +1°C° 0 mm 5 mps 732 mmHg 92%
    13:00 +1°C° 0 mm 6 mps 732 mmHg 92%
    14:00 +1°C° 0 mm 6 mps 732 mmHg 93%

    23 December, Sunday

    Time Temperature Precipitation Wind Pressure Humidity

    24 December, Monday

    Time Temperature Precipitation Wind Pressure Humidity
    Show more